ABD415 LEGE-EGCC

Flight info

Callsign ABD415
Flight time 2h 16m
Altitude 40000
Route GEANT DCT ROCAN DCT TOU DCT TUPAR UN861 ANG DCT AKIKI UN867 AVANT UM184 HEMEL T420 ELVOS
Aircraft B742/H-SDFHIRWXY/L

Departure

Time 2026-04-22 18:04
Airport Girona-Costa Brava Airport (LEGE)

Arrival

Time 2026-04-22 20:20
Airport Manchester Airport (EGCC)
Time Latitude Longitude Altitude Speed Heading
2026-04-22 17:51 41.89813 2.76447 428 ft 0 kts 106°
2026-04-22 17:54 41.89815 2.76431 428 ft 2 kts 87°
2026-04-22 17:54 41.89812 2.76411 428 ft 2 kts 70°
2026-04-22 17:54 41.89806 2.76394 428 ft 2 kts 52°
2026-04-22 17:54 41.89795 2.76380 427 ft 2 kts 34°
2026-04-22 17:55 41.89781 2.76371 427 ft 2 kts 17°
2026-04-22 17:55 41.89767 2.76366 427 ft 2 kts 15°
2026-04-22 17:55 41.89753 2.76360 427 ft 2 kts 17°
2026-04-22 17:55 41.89738 2.76354 426 ft 2 kts 17°
2026-04-22 17:56 41.89724 2.76349 426 ft 1 kts 17°
2026-04-22 17:56 41.89722 2.76348 426 ft 0 kts 17°
2026-04-22 18:00 41.89727 2.76350 426 ft 3 kts 17°
2026-04-22 18:00 41.89781 2.76372 427 ft 12 kts 17°
2026-04-22 18:01 41.89863 2.76362 429 ft 12 kts 309°
2026-04-22 18:01 41.89898 2.76255 428 ft 12 kts 258°
2026-04-22 18:01 41.89825 2.76185 425 ft 15 kts 201°
2026-04-22 18:01 41.89717 2.76141 422 ft 17 kts 195°
2026-04-22 18:02 41.89595 2.76082 419 ft 20 kts 217°
2026-04-22 18:02 41.89525 2.75950 414 ft 10 kts 247°
2026-04-22 18:02 41.89537 2.75862 410 ft 9 kts 338°
2026-04-22 18:02 41.89595 2.75868 412 ft 7 kts 11°
2026-04-22 18:03 41.89625 2.75877 413 ft 0 kts 15°
2026-04-22 18:03 41.89766 2.75932 419 ft 63 kts 16°
2026-04-22 18:04 41.90509 2.76213 447 ft 155 kts 15°
2026-04-22 18:04 41.91676 2.76643 1100 ft 186 kts 18°
2026-04-22 18:04 41.92947 2.77124 2032 ft 209 kts 16°
2026-04-22 18:04 41.94479 2.77572 2544 ft 232 kts 16°
2026-04-22 18:05 41.96038 2.78228 3054 ft 238 kts 18°
2026-04-22 18:05 41.97639 2.78896 3555 ft 242 kts 16°
2026-04-22 18:05 41.99258 2.79543 4043 ft 248 kts 15°
2026-04-22 18:05 42.00953 2.80138 4544 ft 254 kts
2026-04-22 18:06 42.02658 2.79761 5163 ft 250 kts 331°
2026-04-22 18:06 42.03884 2.78209 5831 ft 245 kts 297°
2026-04-22 18:06 42.04532 2.76137 6518 ft 241 kts 291°
2026-04-22 18:06 42.05139 2.74043 7197 ft 240 kts 291°
2026-04-22 18:07 42.05738 2.71975 7860 ft 240 kts 291°
2026-04-22 18:07 42.06335 2.69912 8526 ft 241 kts 291°
2026-04-22 18:07 42.06942 2.67812 9188 ft 241 kts 291°
2026-04-22 18:07 42.07542 2.65739 9856 ft 241 kts 291°
2026-04-22 18:08 42.08152 2.63631 10568 ft 240 kts 291°
2026-04-22 18:08 42.08772 2.61566 11237 ft 238 kts 295°
2026-04-22 18:08 42.09623 2.59720 11903 ft 234 kts 307°
2026-04-22 18:08 42.10684 2.58117 12567 ft 229 kts 313°
2026-04-22 18:09 42.11824 2.56670 13164 ft 225 kts 315°
2026-04-22 18:09 42.13016 2.55278 13572 ft 229 kts 317°
2026-04-22 18:09 42.14250 2.53893 13972 ft 232 kts 317°
2026-04-22 18:09 42.15510 2.52504 14362 ft 235 kts 318°
2026-04-22 18:10 42.16779 2.51117 14756 ft 238 kts 318°
2026-04-22 18:10 42.18068 2.49709 15175 ft 240 kts 318°
2026-04-22 18:10 42.19386 2.48272 15577 ft 243 kts 318°
2026-04-22 18:10 42.20694 2.46845 15988 ft 245 kts 318°
2026-04-22 18:11 42.22018 2.45389 16398 ft 246 kts 318°
2026-04-22 18:11 42.23349 2.43917 16810 ft 248 kts 319°
2026-04-22 18:11 42.24671 2.42454 17214 ft 250 kts 319°
2026-04-22 18:11 42.26030 2.40947 17636 ft 251 kts 319°
2026-04-22 18:12 42.27371 2.39459 18046 ft 252 kts 319°
2026-04-22 18:12 42.28734 2.37948 18464 ft 253 kts 319°
2026-04-22 18:12 42.29623 2.36960 18738 ft 254 kts 319°
2026-04-22 18:12 42.31453 2.34927 19314 ft 254 kts 318°
2026-04-22 18:13 42.32809 2.33400 19722 ft 255 kts 318°
2026-04-22 18:13 42.34163 2.31874 20141 ft 255 kts 318°
2026-04-22 18:13 42.35523 2.30352 20560 ft 254 kts 318°
2026-04-22 18:13 42.36879 2.28839 20978 ft 253 kts 318°
2026-04-22 18:14 42.38228 2.27335 21397 ft 251 kts 318°
2026-04-22 18:14 42.39560 2.25849 21813 ft 248 kts 318°
2026-04-22 18:14 42.40882 2.24373 22232 ft 245 kts 318°
2026-04-22 18:14 42.42180 2.22925 22587 ft 243 kts 318°
2026-04-22 18:15 42.43493 2.21455 22777 ft 248 kts 318°
2026-04-22 18:15 42.44830 2.19961 23051 ft 249 kts 318°
2026-04-22 18:15 42.46183 2.18448 23333 ft 251 kts 318°
2026-04-22 18:15 42.47527 2.16943 23608 ft 252 kts 318°
2026-04-22 18:16 42.48867 2.15442 23882 ft 253 kts 318°
2026-04-22 18:16 42.50228 2.13917 24175 ft 254 kts 318°
2026-04-22 18:16 42.51586 2.12395 24445 ft 255 kts 318°
2026-04-22 18:16 42.52943 2.10873 24717 ft 255 kts 318°
2026-04-22 18:17 42.54325 2.09321 24979 ft 256 kts 319°
2026-04-22 18:17 42.55696 2.07781 25235 ft 257 kts 319°
2026-04-22 18:17 42.57061 2.06247 25488 ft 257 kts 319°
2026-04-22 18:17 42.58464 2.04669 25711 ft 259 kts 319°
2026-04-22 18:18 42.59850 2.03110 25958 ft 259 kts 319°
2026-04-22 18:18 42.61235 2.01551 26179 ft 261 kts 319°
2026-04-22 18:18 42.62645 1.99963 26418 ft 261 kts 319°
2026-04-22 18:18 42.64044 1.98386 26636 ft 262 kts 319°
2026-04-22 18:19 42.65440 1.96812 26869 ft 263 kts 319°
2026-04-22 18:19 42.66851 1.95222 27078 ft 263 kts 320°
2026-04-22 18:19 42.68430 1.93925 27239 ft 266 kts 333°
2026-04-22 18:19 42.70118 1.92897 27480 ft 266 kts 334°
2026-04-22 18:20 42.71812 1.91870 27660 ft 268 kts 333°
2026-04-22 18:20 42.73512 1.90826 27903 ft 267 kts 333°
2026-04-22 18:20 42.75191 1.89787 28115 ft 268 kts 333°
2026-04-22 18:20 42.76891 1.88731 28286 ft 270 kts 333°
2026-04-22 18:21 42.78605 1.87664 28447 ft 272 kts 333°
2026-04-22 18:21 42.80325 1.86593 28702 ft 271 kts 333°
2026-04-22 18:21 42.82035 1.85528 28918 ft 271 kts 333°
2026-04-22 18:21 42.83739 1.84464 29099 ft 272 kts 334°
2026-04-22 18:22 42.85471 1.83383 29280 ft 273 kts 334°
2026-04-22 18:22 42.87183 1.82315 29495 ft 273 kts 334°
2026-04-22 18:22 42.88926 1.81225 29664 ft 274 kts 334°
2026-04-22 18:22 42.90643 1.80151 29843 ft 275 kts 333°
2026-04-22 18:23 42.92386 1.79061 30054 ft 275 kts 334°
2026-04-22 18:23 42.94124 1.77972 30187 ft 277 kts 334°
2026-04-22 18:23 42.95896 1.76863 30370 ft 278 kts 334°
2026-04-22 18:24 42.99400 1.74667 30777 ft 277 kts 333°
2026-04-22 18:24 43.01153 1.73565 30935 ft 278 kts 333°
2026-04-22 18:24 43.04660 1.71362 31248 ft 281 kts 333°
2026-04-22 18:25 43.06454 1.70233 31417 ft 282 kts 333°
2026-04-22 18:25 43.08231 1.69115 31641 ft 280 kts 333°
2026-04-22 18:25 43.09995 1.68005 31839 ft 281 kts 333°
2026-04-22 18:26 43.13543 1.65765 32190 ft 282 kts 333°
2026-04-22 18:26 43.15337 1.64631 32355 ft 283 kts 333°
2026-04-22 18:26 43.17126 1.63501 32533 ft 283 kts 333°
2026-04-22 18:26 43.18921 1.62366 32695 ft 284 kts 333°
2026-04-22 18:27 43.20702 1.61241 32866 ft 285 kts 333°
2026-04-22 18:27 43.22503 1.60102 33049 ft 285 kts 333°
2026-04-22 18:27 43.24297 1.58966 33232 ft 285 kts 333°
2026-04-22 18:27 43.26101 1.57824 33398 ft 286 kts 333°
2026-04-22 18:28 43.27918 1.56673 33537 ft 287 kts 333°
2026-04-22 18:28 43.29735 1.55521 33728 ft 287 kts 333°
2026-04-22 18:28 43.31529 1.54383 33906 ft 287 kts 333°
2026-04-22 18:28 43.33351 1.53225 34016 ft 289 kts 333°
2026-04-22 18:29 43.35169 1.52070 34186 ft 289 kts 333°
2026-04-22 18:29 43.37007 1.50901 34314 ft 290 kts 333°
2026-04-22 18:29 43.38847 1.49731 34498 ft 290 kts 333°
2026-04-22 18:29 43.40661 1.48576 34693 ft 289 kts 333°
2026-04-22 18:30 43.42504 1.47401 34823 ft 290 kts 333°
2026-04-22 18:30 43.46158 1.45072 35105 ft 292 kts 333°
2026-04-22 18:30 43.48002 1.43894 35257 ft 292 kts 333°
2026-04-22 18:31 43.49853 1.42712 35388 ft 293 kts 333°
2026-04-22 18:31 43.51704 1.41528 35528 ft 294 kts 333°
2026-04-22 18:31 43.53569 1.40336 35697 ft 293 kts 333°
2026-04-22 18:31 43.55420 1.39151 35811 ft 294 kts 333°
2026-04-22 18:32 43.57275 1.37963 35926 ft 295 kts 333°
2026-04-22 18:32 43.59119 1.36780 36053 ft 295 kts 333°
2026-04-22 18:32 43.60975 1.35590 36167 ft 296 kts 333°
2026-04-22 18:32 43.62862 1.34374 36287 ft 297 kts 332°
2026-04-22 18:33 43.64737 1.33145 36389 ft 298 kts 332°
2026-04-22 18:33 43.66596 1.31934 36513 ft 299 kts 332°
2026-04-22 18:33 43.68478 1.30709 36640 ft 299 kts 332°
2026-04-22 18:33 43.70356 1.29436 36760 ft 299 kts 331°
2026-04-22 18:34 43.72209 1.28167 36900 ft 299 kts 331°
2026-04-22 18:34 43.75969 1.25598 37083 ft 302 kts 331°
2026-04-22 18:34 43.77845 1.24318 37233 ft 301 kts 331°
2026-04-22 18:35 43.79708 1.23047 37393 ft 301 kts 331°
2026-04-22 18:35 43.83481 1.20468 37522 ft 304 kts 331°
2026-04-22 18:35 43.85380 1.19171 37647 ft 304 kts 331°
2026-04-22 18:36 43.87276 1.17873 37786 ft 303 kts 331°
2026-04-22 18:36 43.91057 1.15282 37914 ft 306 kts 331°
2026-04-22 18:37 43.94894 1.12649 38086 ft 307 kts 331°
2026-04-22 18:37 43.98727 1.10015 38264 ft 308 kts 331°
2026-04-22 18:38 44.02568 1.07373 38414 ft 310 kts 331°
2026-04-22 18:38 44.04488 1.06051 38563 ft 308 kts 331°
2026-04-22 18:38 44.06433 1.04711 38619 ft 310 kts 331°
2026-04-22 18:39 44.10300 1.02042 38768 ft 311 kts 331°
2026-04-22 18:39 44.12242 1.00698 38877 ft 311 kts 331°
2026-04-22 18:39 44.16110 0.98019 39006 ft 313 kts 331°
2026-04-22 18:40 44.19999 0.95324 39150 ft 315 kts 331°
2026-04-22 18:40 44.23927 0.92600 39380 ft 313 kts 331°
2026-04-22 18:41 44.25852 0.91263 39495 ft 312 kts 331°
2026-04-22 18:41 44.27818 0.89897 39600 ft 312 kts 331°
2026-04-22 18:41 44.31677 0.87213 39744 ft 311 kts 331°
2026-04-22 18:42 44.35556 0.84510 39846 ft 311 kts 331°
2026-04-22 18:42 44.39432 0.81805 39951 ft 312 kts 331°
2026-04-22 18:43 44.43326 0.79084 40056 ft 311 kts 331°
2026-04-22 18:43 44.47205 0.76370 40144 ft 311 kts 330°
2026-04-22 18:44 44.51071 0.73659 40220 ft 311 kts 331°
2026-04-22 18:44 44.54935 0.70947 40279 ft 312 kts 330°
2026-04-22 18:45 44.58814 0.68221 40324 ft 312 kts 330°
2026-04-22 18:45 44.62707 0.65480 40364 ft 312 kts 330°
2026-04-22 18:46 44.66594 0.62738 40409 ft 312 kts 330°
2026-04-22 18:46 44.70473 0.60000 40451 ft 313 kts 330°
2026-04-22 18:47 44.74351 0.57257 40469 ft 313 kts 330°
2026-04-22 18:47 44.78234 0.54507 40499 ft 313 kts 330°
2026-04-22 18:48 44.82139 0.51736 40514 ft 314 kts 330°
2026-04-22 18:48 44.86041 0.48964 40544 ft 314 kts 330°
2026-04-22 18:49 44.89942 0.46189 40571 ft 314 kts 330°
2026-04-22 18:49 44.93836 0.43415 40595 ft 314 kts 330°
2026-04-22 18:50 44.97718 0.40644 40609 ft 314 kts 330°
2026-04-22 18:50 45.01608 0.37863 40623 ft 314 kts 330°
2026-04-22 18:51 45.05519 0.35063 40635 ft 314 kts 330°
2026-04-22 18:51 45.09399 0.32238 40666 ft 314 kts 329°
2026-04-22 18:52 45.13300 0.29409 40698 ft 315 kts 329°
2026-04-22 18:52 45.17176 0.26615 40749 ft 315 kts 329°
2026-04-22 18:53 45.21099 0.23789 40781 ft 315 kts 329°
2026-04-22 18:53 45.24999 0.20975 40801 ft 315 kts 329°
2026-04-22 18:54 45.28916 0.18145 40829 ft 316 kts 329°
2026-04-22 18:54 45.32851 0.15297 40830 ft 316 kts 329°
2026-04-22 18:55 45.36751 0.12470 40853 ft 316 kts 329°
2026-04-22 18:55 45.40693 0.09608 40873 ft 316 kts 329°
2026-04-22 18:56 45.44620 0.06753 40897 ft 316 kts 329°
2026-04-22 18:56 45.48492 0.03933 40924 ft 316 kts 329°
2026-04-22 18:57 45.51431 0.01790 40931 ft 316 kts 329°
2026-04-22 18:57 45.55360 -0.01079 40932 ft 316 kts 329°
2026-04-22 18:58 45.59282 -0.03948 40934 ft 316 kts 329°
2026-04-22 18:58 45.63179 -0.06803 40947 ft 317 kts 329°
2026-04-22 18:59 45.67120 -0.09695 40946 ft 317 kts 329°
2026-04-22 18:59 45.71038 -0.12566 40942 ft 316 kts 329°
2026-04-22 19:00 45.72131 -0.13368 40947 ft 341 kts 329°
2026-04-22 19:00 45.74127 -0.14942 41424 ft 327 kts 330°
2026-04-22 19:00 45.78217 -0.17877 41182 ft 333 kts 330°
2026-04-22 19:01 45.80282 -0.19378 40968 ft 339 kts 329°
2026-04-22 19:01 45.82406 -0.20936 40756 ft 346 kts 329°
2026-04-22 19:01 45.84583 -0.22541 40513 ft 354 kts 329°
2026-04-22 19:01 45.86800 -0.24178 40266 ft 362 kts 329°
2026-04-22 19:02 45.89070 -0.25857 40029 ft 370 kts 329°
2026-04-22 19:02 45.91380 -0.27565 39986 ft 373 kts 329°
2026-04-22 19:02 45.96024 -0.31005 39968 ft 379 kts 329°
2026-04-22 19:03 46.00748 -0.34512 39967 ft 385 kts 329°
2026-04-22 19:03 46.05547 -0.38083 39978 ft 391 kts 329°
2026-04-22 19:04 46.10402 -0.41703 39979 ft 397 kts 329°
2026-04-22 19:04 46.15344 -0.45397 39981 ft 404 kts 329°
2026-04-22 19:05 46.20381 -0.49169 39991 ft 411 kts 329°
2026-04-22 19:05 46.25692 -0.52424 39993 ft 423 kts 342°
2026-04-22 19:06 46.31545 -0.54136 39992 ft 432 kts 346°
2026-04-22 19:07 46.40488 -0.56339 40001 ft 434 kts 346°
2026-04-22 19:07 46.46381 -0.57803 39999 ft 433 kts 346°
2026-04-22 19:08 46.52316 -0.59292 40011 ft 434 kts 346°
2026-04-22 19:08 46.58257 -0.60790 40004 ft 432 kts 346°
2026-04-22 19:09 46.64178 -0.62286 40017 ft 431 kts 346°
2026-04-22 19:09 46.70083 -0.63784 40020 ft 432 kts 346°
2026-04-22 19:10 46.76051 -0.65306 40032 ft 439 kts 345°
2026-04-22 19:10 46.82095 -0.66922 40030 ft 446 kts 345°
2026-04-22 19:11 46.88220 -0.68531 40033 ft 448 kts 345°
2026-04-22 19:11 46.94307 -0.70098 40047 ft 441 kts 346°
2026-04-22 19:12 47.00362 -0.71654 40047 ft 443 kts 346°
2026-04-22 19:12 47.06480 -0.73228 40048 ft 445 kts 345°
2026-04-22 19:13 47.12563 -0.74796 40055 ft 445 kts 346°
2026-04-22 19:13 47.18691 -0.76379 40055 ft 447 kts 346°
2026-04-22 19:14 47.24806 -0.77961 40059 ft 445 kts 346°
2026-04-22 19:14 47.30850 -0.79528 40068 ft 443 kts 345°
2026-04-22 19:15 47.35893 -0.80840 40069 ft 444 kts 345°
2026-04-22 19:15 47.43011 -0.82695 40072 ft 444 kts 346°
2026-04-22 19:16 47.49066 -0.84277 40077 ft 445 kts 346°
2026-04-22 19:16 47.55168 -0.85876 40084 ft 446 kts 346°
2026-04-22 19:17 47.61309 -0.87487 40086 ft 445 kts 346°
2026-04-22 19:17 47.67387 -0.89085 40092 ft 444 kts 346°
2026-04-22 19:18 47.73432 -0.90680 40095 ft 445 kts 346°
2026-04-22 19:18 47.79539 -0.92293 40099 ft 444 kts 346°
2026-04-22 19:19 47.85619 -0.93904 40101 ft 446 kts 346°
2026-04-22 19:19 47.91790 -0.95544 40107 ft 448 kts 346°
2026-04-22 19:20 47.97885 -0.97166 40118 ft 445 kts 346°
2026-04-22 19:20 48.03954 -0.98784 40116 ft 444 kts 346°
2026-04-22 19:21 48.10023 -1.00409 40114 ft 445 kts 346°
2026-04-22 19:21 48.16172 -1.02059 40110 ft 445 kts 346°
2026-04-22 19:22 48.22255 -1.03695 40119 ft 447 kts 346°
2026-04-22 19:22 48.28355 -1.05339 40120 ft 447 kts 346°
2026-04-22 19:23 48.34442 -1.06982 40124 ft 445 kts 346°
2026-04-22 19:23 48.40562 -1.08639 40126 ft 446 kts 346°
2026-04-22 19:24 48.46645 -1.10290 40124 ft 446 kts 346°
2026-04-22 19:24 48.52725 -1.11944 40127 ft 445 kts 346°
2026-04-22 19:25 48.58852 -1.13616 40127 ft 447 kts 346°
2026-04-22 19:25 48.64968 -1.15289 40131 ft 449 kts 346°
2026-04-22 19:26 48.71106 -1.16970 40135 ft 447 kts 346°
2026-04-22 19:26 48.77205 -1.18645 40134 ft 448 kts 346°
2026-04-22 19:27 48.83334 -1.20333 40137 ft 447 kts 346°
2026-04-22 19:27 48.89435 -1.22017 40138 ft 446 kts 346°
2026-04-22 19:28 48.95571 -1.23717 40142 ft 448 kts 346°
2026-04-22 19:28 49.01704 -1.25419 40141 ft 449 kts 346°
2026-04-22 19:29 49.07842 -1.27126 40153 ft 449 kts 346°
2026-04-22 19:29 49.13970 -1.28836 40160 ft 449 kts 347°
2026-04-22 19:30 49.19076 -1.30264 40152 ft 450 kts 347°
2026-04-22 19:30 49.26255 -1.32276 40166 ft 450 kts 347°
2026-04-22 19:31 49.32417 -1.34008 40169 ft 450 kts 347°
2026-04-22 19:31 49.38555 -1.35736 40176 ft 450 kts 347°
2026-04-22 19:32 49.44763 -1.37489 40176 ft 451 kts 347°
2026-04-22 19:32 49.50897 -1.39226 40179 ft 450 kts 346°
2026-04-22 19:33 49.57032 -1.40968 40197 ft 451 kts 347°
2026-04-22 19:33 49.63347 -1.41439 40202 ft 458 kts 360°
2026-04-22 19:34 49.69743 -1.40785 40201 ft 459 kts
2026-04-22 19:34 49.76062 -1.40126 40200 ft 457 kts
2026-04-22 19:35 49.82445 -1.39526 40202 ft 459 kts
2026-04-22 19:35 49.87961 -1.39028 40207 ft 458 kts
2026-04-22 19:36 49.94340 -1.38460 40204 ft 460 kts
2026-04-22 19:36 50.00708 -1.37819 40205 ft 460 kts
2026-04-22 19:37 50.07051 -1.36345 40211 ft 462 kts
2026-04-22 19:37 50.13375 -1.34692 40201 ft 461 kts
2026-04-22 19:38 50.19665 -1.33088 40215 ft 461 kts
2026-04-22 19:38 50.26021 -1.31491 40217 ft 463 kts
2026-04-22 19:39 50.32344 -1.29907 40214 ft 461 kts
2026-04-22 19:39 50.38655 -1.28323 40219 ft 462 kts
2026-04-22 19:40 50.44979 -1.26733 40215 ft 462 kts
2026-04-22 19:40 50.51187 -1.24328 40238 ft 466 kts 22°
2026-04-22 19:41 50.56842 -1.19203 40245 ft 473 kts 30°
2026-04-22 19:41 50.62323 -1.13589 40242 ft 472 kts 30°
2026-04-22 19:42 50.67809 -1.08029 40257 ft 470 kts 30°
2026-04-22 19:42 50.73302 -1.02524 40267 ft 470 kts 29°
2026-04-22 19:43 50.81593 -0.94328 40276 ft 466 kts 24°
2026-04-22 19:43 50.85714 -0.91683 40268 ft 464 kts 16°
2026-04-22 19:44 50.89101 -0.89945 40260 ft 463 kts 15°
2026-04-22 19:45 50.92968 -0.88037 40280 ft 464 kts 15°
2026-04-22 19:45 50.99112 -0.84953 40281 ft 464 kts 15°
2026-04-22 19:46 51.05238 -0.81806 40263 ft 463 kts 15°
2026-04-22 19:46 51.11351 -0.78633 40299 ft 462 kts 15°
2026-04-22 19:47 51.17434 -0.75460 40282 ft 463 kts 15°
2026-04-22 19:47 51.23559 -0.72257 40297 ft 463 kts 16°
2026-04-22 19:48 51.29650 -0.69062 40303 ft 463 kts 15°
2026-04-22 19:48 51.35718 -0.65871 40285 ft 463 kts 16°
2026-04-22 19:49 51.40921 -0.63128 40273 ft 462 kts 16°
2026-04-22 19:49 51.45853 -0.60521 40300 ft 462 kts 16°
2026-04-22 19:50 51.51918 -0.57308 40277 ft 463 kts 16°
2026-04-22 19:50 51.58002 -0.54076 40304 ft 462 kts 16°
2026-04-22 19:51 51.64109 -0.50822 40301 ft 463 kts 16°
2026-04-22 19:51 51.70231 -0.47551 40289 ft 463 kts 16°
2026-04-22 19:52 51.76324 -0.44512 40292 ft 460 kts
2026-04-22 19:52 51.79476 -0.44116 40296 ft 457 kts 356°
2026-04-22 19:52 51.82603 -0.44845 40324 ft 456 kts 343°
2026-04-22 19:53 51.88355 -0.49156 40329 ft 459 kts 329°
2026-04-22 19:53 51.93762 -0.54601 40353 ft 458 kts 328°
2026-04-22 19:54 51.99155 -0.60016 40340 ft 457 kts 328°
2026-04-22 19:54 52.04586 -0.65378 40365 ft 458 kts 329°
2026-04-22 19:55 52.10004 -0.70701 40223 ft 462 kts 329°
2026-04-22 19:55 52.12770 -0.73421 39787 ft 463 kts 328°
2026-04-22 19:55 52.14466 -0.75091 39489 ft 452 kts 328°
2026-04-22 19:56 52.17092 -0.77680 39031 ft 435 kts 328°
2026-04-22 19:56 52.19613 -0.80167 38567 ft 422 kts 328°
2026-04-22 19:56 52.22088 -0.82611 38106 ft 416 kts 328°
2026-04-22 19:56 52.24576 -0.85071 37640 ft 415 kts 328°
2026-04-22 19:57 52.27009 -0.87481 37183 ft 414 kts 328°
2026-04-22 19:57 52.29470 -0.89922 36697 ft 410 kts 328°
2026-04-22 19:57 52.31868 -0.92303 36290 ft 402 kts 328°
2026-04-22 19:57 52.34255 -0.94675 35895 ft 396 kts 328°
2026-04-22 19:58 52.36563 -0.96974 35490 ft 392 kts 327°
2026-04-22 19:58 52.38889 -0.99292 35065 ft 389 kts 327°
2026-04-22 19:58 52.41176 -1.01576 34319 ft 389 kts 327°
2026-04-22 19:58 52.43466 -1.03867 33525 ft 383 kts 327°
2026-04-22 19:59 52.45715 -1.06119 32730 ft 375 kts 327°
2026-04-22 20:00 52.58530 -1.19006 28077 ft 353 kts 328°
2026-04-22 20:00 52.60626 -1.21121 27174 ft 352 kts 328°
2026-04-22 20:01 52.62670 -1.23185 26286 ft 349 kts 328°
2026-04-22 20:01 52.64717 -1.25256 25390 ft 347 kts 329°
2026-04-22 20:01 52.66782 -1.27346 24486 ft 345 kts 329°
2026-04-22 20:01 52.68798 -1.29391 23603 ft 343 kts 329°
2026-04-22 20:02 52.70797 -1.31418 22729 ft 341 kts 329°
2026-04-22 20:02 52.72816 -1.33471 21857 ft 339 kts 329°
2026-04-22 20:02 52.74812 -1.35503 20942 ft 340 kts 329°
2026-04-22 20:02 52.76833 -1.37562 19877 ft 344 kts 329°
2026-04-22 20:03 52.78846 -1.39615 18843 ft 348 kts 330°
2026-04-22 20:03 52.80896 -1.41707 17816 ft 350 kts 330°
2026-04-22 20:03 52.82977 -1.43833 16794 ft 352 kts 329°
2026-04-22 20:03 52.85036 -1.45939 15779 ft 354 kts 329°
2026-04-22 20:04 52.87130 -1.48084 14755 ft 355 kts 329°
2026-04-22 20:04 52.89226 -1.50235 13745 ft 356 kts 329°
2026-04-22 20:04 52.91326 -1.52392 12761 ft 356 kts 329°
2026-04-22 20:04 52.93377 -1.54504 11963 ft 349 kts 329°
2026-04-22 20:05 52.95427 -1.56617 11157 ft 343 kts 329°
2026-04-22 20:05 52.97421 -1.58674 10358 ft 338 kts 329°
2026-04-22 20:05 52.99397 -1.60714 9585 ft 333 kts 329°
2026-04-22 20:05 53.01327 -1.62709 8793 ft 329 kts 329°
2026-04-22 20:06 53.03265 -1.64714 8005 ft 326 kts 330°
2026-04-22 20:06 53.05100 -1.66714 7584 ft 309 kts 321°
2026-04-22 20:06 53.06565 -1.69192 7226 ft 294 kts 311°
2026-04-22 20:06 53.07878 -1.71744 6919 ft 288 kts 310°
2026-04-22 20:07 53.09170 -1.74278 6476 ft 283 kts 310°
2026-04-22 20:07 53.10424 -1.76723 6033 ft 276 kts 310°
2026-04-22 20:07 53.11671 -1.79146 5589 ft 274 kts 311°
2026-04-22 20:07 53.12905 -1.81542 5138 ft 272 kts 311°
2026-04-22 20:08 53.14120 -1.83903 4723 ft 266 kts 311°
2026-04-22 20:08 53.15301 -1.86198 4316 ft 261 kts 312°
2026-04-22 20:08 53.16481 -1.88494 3920 ft 258 kts 312°
2026-04-22 20:08 53.17636 -1.90742 3537 ft 257 kts 313°
2026-04-22 20:09 53.18796 -1.93004 3172 ft 254 kts 313°
2026-04-22 20:09 53.19935 -1.95228 3005 ft 253 kts 313°
2026-04-22 20:09 53.21077 -1.97459 2962 ft 253 kts 313°
2026-04-22 20:09 53.22218 -1.99690 2957 ft 254 kts 313°
2026-04-22 20:10 53.23370 -2.01951 2947 ft 253 kts 311°
2026-04-22 20:10 53.24144 -2.04590 2954 ft 258 kts 276°
2026-04-22 20:10 53.24024 -2.07530 2971 ft 251 kts 255°
2026-04-22 20:10 53.23737 -2.10310 2972 ft 236 kts 259°
2026-04-22 20:11 53.23563 -2.12999 2969 ft 234 kts 262°
2026-04-22 20:11 53.23438 -2.15685 2977 ft 233 kts 263°
2026-04-22 20:11 53.23331 -2.18403 2971 ft 232 kts 264°
2026-04-22 20:11 53.23231 -2.21066 2973 ft 231 kts 264°
2026-04-22 20:12 53.23133 -2.23773 2972 ft 232 kts 264°
2026-04-22 20:12 53.23035 -2.26470 2960 ft 232 kts 264°
2026-04-22 20:12 53.22937 -2.29147 2969 ft 232 kts 264°
2026-04-22 20:12 53.22837 -2.31874 2956 ft 233 kts 264°
2026-04-22 20:13 53.22738 -2.34555 2961 ft 233 kts 264°
2026-04-22 20:13 53.22638 -2.37258 2964 ft 234 kts 264°
2026-04-22 20:13 53.22535 -2.39991 2965 ft 234 kts 264°
2026-04-22 20:13 53.22434 -2.42691 2966 ft 233 kts 264°
2026-04-22 20:14 53.22333 -2.45375 2964 ft 233 kts 263°
2026-04-22 20:14 53.22230 -2.48070 2979 ft 231 kts 264°
2026-04-22 20:14 53.22131 -2.50759 2970 ft 232 kts 265°
2026-04-22 20:14 53.22469 -2.53368 2959 ft 234 kts 302°
2026-04-22 20:15 53.23649 -2.55132 2961 ft 225 kts 342°
2026-04-22 20:15 53.25118 -2.55325 2958 ft 208 kts 23°
2026-04-22 20:15 53.26209 -2.54017 2948 ft 179 kts 66°
2026-04-22 20:15 53.26452 -2.52206 2952 ft 154 kts 91°
2026-04-22 20:16 53.26847 -2.50563 2955 ft 163 kts 53°
2026-04-22 20:16 53.27697 -2.49267 2963 ft 165 kts 51°
2026-04-22 20:16 53.28500 -2.47928 2836 ft 163 kts 66°
2026-04-22 20:16 53.28833 -2.46141 2459 ft 156 kts 84°
2026-04-22 20:17 53.28972 -2.44377 2154 ft 151 kts 89°
2026-04-22 20:17 53.29002 -2.42703 2032 ft 133 kts 91°
2026-04-22 20:17 53.29111 -2.41177 1828 ft 131 kts 73°
2026-04-22 20:17 53.29478 -2.39800 1523 ft 132 kts 71°
2026-04-22 20:18 53.29840 -2.38458 1331 ft 124 kts 70°
2026-04-22 20:18 53.30186 -2.37152 1098 ft 122 kts 70°
2026-04-22 20:18 53.30631 -2.35940 915 ft 127 kts 48°
2026-04-22 20:18 53.31312 -2.34963 861 ft 132 kts 54°
2026-04-22 20:19 53.31903 -2.33736 688 ft 137 kts 57°
2026-04-22 20:19 53.32501 -2.32532 487 ft 133 kts 54°
2026-04-22 20:19 53.33069 -2.31352 332 ft 127 kts 55°
2026-04-22 20:19 53.33611 -2.30208 265 ft 122 kts 54°
2026-04-22 20:20 53.34047 -2.29299 262 ft 72 kts 51°
2026-04-22 20:20 53.34232 -2.28917 262 ft 11 kts 51°